SCP
0 0 0 0 0 0 0 0 0 0 -0 -0 0 0 0 0 0 0 0 0 0 0 0 0 0 0 0 0 0 0 0 0 0 0 0 0 0 0 0 0 0 0 0 0 0
0 0 0 0 0 0 0 0 0 0 0 -0 -0 -0 0 0 0 0 0 0 0 0 0 0 0 0 0 0 0 0 0 0 0 0 0 0 0 0 0 0 0 0 0 0 0
0 0 0 0 0 0 0 0 0 0 0 0 -0 0 0 0 0 0 0 0 0 0 -0 0 0 0 0 0 0 0 0 0 0 0 0 0 0 0 0 0 0 0 0 0 0
0 0 0 0 0 0 0 0 0 0 0 0 0 0 0 0 0 0 0 0 0 0 0 0 0 0 0 0 0 0 0 0 0 0 0 0 0 0 0 0 0 0 0 0 0
0 0 0 0 0 0 0 0 0 0 0 0 0 0 0 0 0 0 0 0 0 0 0 0 0 0 0 0 0 0 0 0 0 0 0 0 0 0 0 0 0 0 0 0 0
0 0 0 0 0 0 0 0 0 0 0 0 0 0 0 0 -0 0 0 0 0 0 0 0 0 0 0 0 0 0 0 0 0 0 0 0 0 0 0 0 0 0 0 0 0
0 0 0 0 0 0 0 0 0 0 0 0 0 0 0 0 0 0 0 0 0 0 0 0 0 0 0 0 0 0 0 0 0 0 0 0 0 0 0 0 0 0 0 0 0
0 0 0 0 0 0 0 0 0 0 0 0 0 0 0 0 -0 -0 0 0 0 0 0 0 0 0 0 0 0 0 0 0 0 0 0 0 0 0 0 0 0 0 0 0 0
0 0 0 0 0 0 0 0 0 0 0 0 0 0 0 0 0 0 0 0 0 0 0 0 0 0 0 0 0 0 0 0 -0 0 0 0 0 0 -0 0 0 0 0 0 0
0 0 0 0 0 0 0 0 0 0 0 0 0 0 0 0 0 0 0 0 0 0 0 0 0 0 0 0 0 0 0 -0 0 0 0 0 0 0 -0 0 0 0 0 0 0
0 0 0 0 0 0 0 0 0 0 0 0 0 0 0 0 0 0 0 0 0 0 0 0 0 0 0 0 -0 0 0 0 0 0 0 0 0 0 0 0 0 0 0 0 0
0 0 0 0 0 0 0 0 0 0 0 0 0 0 0 0 0 0 0 0 0 0 0 0 0 0 -0 -0 -0 0 0 0 0 0 0 0 0 0 0 0 0 0 0 0 0
0 0 0 0 0 0 0 0 0 0 0 0 0 0 0 0 0 0 0 0 0 0 0 0 0 -0 0 0 0 0 0 0 0 0 0 0 0 0 -0 0 0 0 0 -0 0
0 0 0 0 0 0 0 0 0 0 0 0 0 0 0 0 0 0 0 0 0 0 0 0 -0 0 0 0 0 0 0 0 0 0 0 -0 0 0 0 0 0 -0 0 0 -0
0 0 0 0 0 0 0 0 0 0 0 0 0 0 0 0 0 0 0 0 0 0 0 0 -0 0 0 0 0 0 0 0 0 0 0 0 0 0 0 0 0 -0 -0 0 -0
0 0 0 0 0 0 0 0 0 0 0 0 0 0 0 0 0 0 0 -0 -0 -0 0 -0 0 0 0 0 0 0 0 0 0 0 0 0 0 0 0 0 0 -0 -0 0 0
0 0 0 0 0 0 0 0 0 0 0 0 0 0 0 0 -0 -0 0 0 0 0 0 0 0 0 0 0 0 0 0 0 0 0 0 0 0 0 0 0 0 0 0 0 0
0 0 0 0 0 0 0 0 0 0 0 -0 0 0 0 -0 0 -0 0 0 0 0 0 0 0 0 0 0 0 0 0 0 0 0 0 0 0 0 0 0 0 0 0 0 0
0 0 0 0 0 0 0 0 0 0 0 0 0 0 0 0 0 0 0 0 -0 -0 0 0 0 0 0 0 0 0 0 0 0 0 0 0 0 0 0 0 0 0 0 0 0
0 0 0 0 0 0 0 0 0 0 0 -0 0 0 -0 0 -0 0 0 0 0 -0 0 0 0 0 -0 0 0 0 0 0 0 0 0 0 0 0 0 0 0 0 0 0 0
0 0 0 0 0 0 0 0 -0 -0 -0 -0 0 0 0 0 0 0 0 0 0 -0 0 0 0 0 0 0 0 0 0 0 0 0 0 0 0 0 0 0 0 0 0 0 0
0 0 0 0 0 0 0 -0 -0 -0 0 0 0 -0 0 0 -0 0 0 0 0 0 0 0 0 0 -0 0 -0 0 0 0 0 0 0 0 0 0 0 0 0 0 0 0 0
0 0 0 0 0 0 0 -0 -0 0 0 0 0 0 0 -0 -0 -0 0 0 0 0 -0 0 0 0 0 0 0 0 -0 -0 0 0 0 0 0 0 0 0 0 0 0 0 0
0 0 0 0 0 0 0 0 0 -0 -0 0 -0 0 0 0 -0 -0 0 -0 0 0 0 0 0 0 0 0 0 0 0 -0 0 0 0 0 0 0 0 0 0 0 0 0 0
0 0 0 0 0 0 -0 -0 0 -0 -0 -0 0 0 0 0 0 0 -0 -0 0 0 0 0 -0 0 0 0 0 0 0 0 0 0 0 0 -0 -0 0 -0 0 0 0 0 0
0 0 0 -0 -0 -0 0 0 0 0 -0 -0 0 0 0 -0 0 0 0 0 0 0 0 1 -0 0 0 0 0 0 0 0 0 0 0 0 0 0 0 0 0 0 0 0 0
0 0 0 0 -0 -0 0 -0 0 -0 -0 0 0 0 0 0 0 0 -0 0 0 0 1 1 0 0 0 0 0 0 0 0 0 0 0 0 0 0 0 0 0 0 0 0 0
Wind_Speed_500mb
33 34 35 37 38 38 39 40 40 38 38 39 38 39 43 43 43 43 47 38 27 35 25 16 31 36 33 41 45 42 32 38 48 45 37 44 21 28 41 53 22 26 32 11 4
34 35 38 38 39 39 41 41 41 41 41 41 41 41 39 42 48 56 50 50 33 32 37 33 37 40 46 42 47 34 31 49 37 34 32 26 30 29 32 29 36 43 25 21 18
34 35 37 37 37 39 41 42 42 42 43 43 45 44 40 32 44 42 24 33 36 40 35 35 32 41 48 42 50 47 42 33 42 27 26 29 31 26 34 34 35 35 34 21 24
35 35 35 36 36 37 39 42 44 44 44 46 48 45 38 16 17 2 15 23 29 43 36 39 39 48 43 46 46 42 43 50 46 16 31 33 39 41 39 43 40 38 35 7 16
38 38 39 41 41 40 42 43 44 46 50 49 48 44 28 27 53 42 34 12 39 49 40 44 46 49 43 40 43 43 42 37 46 41 37 36 41 40 44 42 42 46 30 33 27
42 42 43 43 43 44 45 45 47 50 49 51 40 30 22 46 29 36 22 20 37 44 41 42 35 44 41 43 33 39 40 47 41 41 43 43 42 46 50 45 44 45 50 40 34
43 43 43 45 49 49 50 49 49 49 52 39 28 24 33 60 19 27 30 37 37 39 37 38 35 30 31 34 37 41 26 32 38 42 38 37 42 47 47 48 53 52 58 54 53
45 46 46 46 50 52 52 50 50 49 47 32 20 18 29 15 53 29 35 40 42 38 37 30 33 33 42 29 11 32 37 36 42 44 43 35 36 34 39 48 56 59 52 58 58
47 48 50 50 50 54 54 49 47 45 31 15 10 17 28 20 39 54 40 45 45 39 36 30 36 38 40 34 26 31 36 43 41 21 24 33 31 28 31 34 39 56 54 63 64
52 50 49 54 51 53 56 48 33 9 2 11 13 15 38 37 30 44 48 42 45 40 35 33 35 32 35 32 34 40 37 40 33 32 23 28 35 28 35 26 31 43 52 58 68
60 55 51 56 57 56 56 30 11 12 26 29 31 29 22 14 22 44 54 44 48 46 34 51 37 42 49 47 44 40 38 38 31 24 14 23 27 32 30 29 29 34 48 53 64
59 63 65 60 57 57 41 14 25 25 39 51 63 61 57 22 27 38 61 52 46 42 47 33 46 48 47 47 43 40 26 20 16 20 15 23 27 28 25 17 26 33 37 49 61
61 65 66 61 54 31 11 38 40 34 25 52 65 77 74 67 49 52 71 72 46 51 52 42 38 51 47 37 38 35 34 32 28 30 26 26 34 36 30 21 22 22 34 39 51
62 66 63 63 29 19 44 17 14 23 21 38 47 43 73 61 70 54 74 80 36 52 52 47 47 50 38 41 35 36 36 30 23 22 23 22 26 21 24 22 21 31 32 39 42
66 65 64 59 51 37 22 22 19 16 16 15 25 9 21 70 24 78 72 81 50 43 41 50 48 32 46 40 39 31 24 31 32 31 30 34 19 20 20 22 27 29 38 34 34
63 63 67 50 35 46 34 22 13 16 27 13 24 23 32 56 70 65 75 78 71 47 47 51 50 38 32 38 36 28 25 22 23 26 29 37 30 24 12 15 19 30 37 37 23
67 63 59 34 29 13 12 24 17 24 17 34 46 33 40 38 51 45 61 58 56 52 46 46 52 39 34 41 36 31 23 20 25 26 28 37 32 10 25 7 8 9 30 24 16
70 67 42 32 33 25 16 24 38 25 53 44 36 20 27 45 48 54 57 49 64 51 34 40 47 47 32 43 44 45 37 24 33 28 29 38 19 6 28 18 14 16 14 23 29
72 48 38 24 14 18 25 29 40 50 53 55 41 50 45 20 15 22 49 54 60 60 50 38 47 52 45 38 39 38 40 37 38 26 17 15 18 26 26 19 20 23 24 27 29
59 52 40 15 17 22 23 44 52 52 52 49 51 23 52 26 25 13 26 48 52 63 48 46 33 41 49 43 45 43 38 35 24 25 31 25 26 22 37 32 23 25 23 26 34
40 31 2 2 6 16 21 42 47 50 51 48 50 37 39 17 2 16 17 33 41 52 51 45 24 35 30 39 45 37 32 27 26 26 21 21 16 27 18 11 23 24 31 32 35
32 17 1 9 10 14 22 27 39 41 46 42 36 20 55 6 8 19 15 19 43 36 52 40 23 18 48 41 45 41 39 36 19 22 20 22 3 19 14 14 21 31 40 31 36
28 53 25 18 12 20 23 33 48 40 30 41 17 39 31 26 22 25 15 16 28 64 53 47 22 24 4 19 23 31 32 37 22 7 20 12 7 21 19 8 13 23 41 40 32
19 11 22 16 22 9 35 37 28 18 21 37 24 34 22 27 21 16 24 6 48 42 27 48 34 34 23 12 33 38 37 48 23 4 21 19 29 19 27 22 9 10 25 27 25
13 11 19 14 32 41 38 41 34 20 10 15 16 33 10 12 14 22 28 32 28 25 16 31 39 29 12 20 8 16 36 15 29 17 19 16 34 27 41 30 21 20 24 30 27
15 12 13 35 43 39 27 26 28 34 12 18 24 13 17 8 17 10 10 11 4 11 17 7 25 22 29 28 15 11 17 18 22 27 25 24 9 26 23 12 17 26 32 30 25
28 36 21 21 28 28 21 23 36 34 8 12 16 20 16 18 6 19 35 24 8 9 14 17 16 24 19 19 11 21 31 29 25 27 18 21 18 17 12 16 21 29 18 16 16
Wind_Direction_500mb
322 321 320 318 316 314 311 309 306 302 300 299 297 297 299 298 293 290 267 241 237 237 221 209 208 214 218 226 219 223 245 241 243 245 248 254 239 232 253 249 248 244 228 309 329
324 320 317 317 315 314 313 310 307 303 300 298 297 296 297 299 296 281 266 253 240 239 209 200 200 203 214 219 211 224 228 242 245 257 262 249 250 252 245 236 236 243 222 249 237
327 324 322 321 319 317 316 313 308 304 300 298 296 296 296 305 304 268 249 243 221 220 194 210 204 205 220 218 211 220 241 242 246 260 274 281 263 248 247 248 231 225 231 207 220
330 327 322 318 315 313 312 311 309 305 302 298 296 294 291 286 263 187 268 257 219 197 186 208 215 206 223 225 228 231 240 245 262 244 240 256 262 261 249 250 254 244 239 228 235
330 327 324 319 316 312 310 311 308 304 303 300 295 292 291 245 245 275 277 249 182 181 189 203 214 211 221 231 226 232 239 238 244 253 247 250 250 255 249 247 246 252 232 224 249
328 327 325 320 315 311 308 306 305 306 304 300 292 277 251 257 256 232 229 198 179 180 194 203 214 219 233 242 230 238 237 253 246 243 245 249 254 251 245 245 243 246 251 239 240
331 329 326 321 317 315 313 311 309 308 308 299 285 257 243 239 234 225 202 196 189 194 202 209 218 235 231 253 240 239 250 245 243 241 243 251 256 254 257 250 236 235 241 242 237
324 322 321 319 316 315 315 315 313 308 303 292 254 217 250 264 231 223 213 206 204 206 211 218 221 236 236 233 224 228 232 247 231 216 228 227 255 254 240 238 239 235 236 237 230
322 322 322 319 316 314 313 316 309 303 294 274 173 209 266 260 224 218 210 203 200 206 210 218 216 222 216 240 227 217 234 222 243 178 218 197 248 245 248 241 237 237 229 240 226
325 324 321 319 317 315 312 316 313 261 245 167 228 216 245 241 231 208 198 198 196 193 194 199 203 214 220 211 223 215 217 251 214 173 190 234 234 255 266 239 240 239 231 235 226
328 326 324 320 317 316 314 324 260 211 210 216 209 218 298 209 178 197 190 190 190 193 194 197 202 209 207 215 230 239 228 223 205 223 208 247 260 258 258 252 239 234 231 234 227
324 327 326 322 322 317 306 249 288 299 291 246 248 246 248 236 197 199 189 190 195 203 206 182 213 213 224 215 228 248 245 227 241 236 233 270 260 260 256 250 246 246 233 232 219
319 321 323 320 328 331 292 280 282 288 267 268 246 238 235 223 226 193 191 200 200 206 207 207 213 221 212 218 215 228 226 226 240 211 213 267 260 247 239 227 219 245 227 216 203
320 323 326 324 332 301 304 319 303 279 272 270 222 240 229 216 226 219 198 199 198 212 211 221 231 196 209 218 208 217 219 246 248 253 251 275 253 194 211 188 209 212 220 222 194
324 326 326 326 298 300 288 309 286 279 274 312 126 192 207 198 178 211 191 204 215 212 219 212 233 201 207 210 208 229 212 222 224 231 256 255 235 287 166 199 198 212 213 220 221
327 324 324 316 283 283 284 278 280 235 249 250 157 198 209 202 224 190 186 209 218 221 222 226 210 213 207 210 212 218 230 238 244 242 237 243 252 235 174 230 192 191 207 212 209
325 325 314 289 268 278 268 220 231 237 280 237 244 219 207 194 211 225 188 193 210 215 222 213 235 204 219 213 195 205 214 213 212 219 235 232 226 226 155 235 110 235 181 185 190
324 323 322 289 281 283 246 222 240 255 242 268 294 238 178 269 196 218 186 197 210 211 216 217 214 206 204 220 209 211 209 230 209 210 225 224 227 247 141 109 105 115 157 164 176
328 325 302 283 237 216 222 236 246 246 261 278 270 278 262 256 149 339 196 207 203 214 218 206 225 199 202 217 227 192 214 231 264 294 266 328 228 126 157 176 155 142 153 161 151
325 318 296 208 245 216 235 249 268 275 273 270 272 175 275 284 171 196 261 212 208 203 218 234 220 215 194 209 215 240 204 208 234 238 253 178 223 273 170 170 173 156 165 148 143
328 310 168 172 179 205 242 258 259 257 247 259 276 285 267 162 74 250 269 269 232 205 215 226 263 208 194 200 206 202 220 233 229 232 234 261 213 94 9 178 159 165 153 157 145
316 287 263 255 258 222 253 307 293 300 299 299 295 179 262 174 149 213 231 269 315 255 214 220 234 215 205 189 219 200 208 223 200 218 276 267 139 297 150 289 172 154 144 158 162
304 293 281 226 263 298 293 301 295 328 303 297 296 306 271 174 198 197 220 257 303 285 200 207 212 187 62 283 212 194 222 224 225 16 204 235 148 354 0 319 169 153 151 158 154
290 295 347 271 302 326 308 309 307 16 342 350 292 284 236 258 209 173 220 241 263 281 327 202 210 218 205 168 191 207 187 199 169 116 229 223 249 235 272 263 276 207 148 134 159
282 311 11 316 325 315 316 301 324 349 338 301 283 234 305 266 184 229 222 199 264 318 237 207 209 225 93 160 119 232 224 216 248 222 255 239 192 223 245 189 166 135 153 145 148
309 339 308 301 313 314 313 344 343 325 333 344 317 311 292 252 209 144 293 174 201 257 206 124 197 253 138 176 174 236 225 244 232 251 256 258 188 280 155 113 108 155 170 168 166
323 323 294 297 309 308 318 305 310 316 333 211 302 305 41 338 298 155 182 188 176 274 164 175 163 196 198 170 168 220 220 223 236 216 237 250 249 209 197 163 149 176 173 175 159
Wind_Speed_850mb
33 34 35 37 38 38 39 40 40 38 38 39 38 39 43 43 43 43 47 38 27 35 25 16 31 36 33 41 45 42 32 38 48 45 37 44 21 28 41 53 22 26 32 11 4
34 35 38 38 39 39 41 41 41 41 41 41 41 41 39 42 48 56 50 50 33 32 37 33 37 40 46 42 47 34 31 49 37 34 32 26 30 29 32 29 36 43 25 21 18
34 35 37 37 37 39 41 42 42 42 43 43 45 44 40 32 44 42 24 33 36 40 35 35 32 41 48 42 50 47 42 33 42 27 26 29 31 26 34 34 35 35 34 21 24
35 35 35 36 36 37 39 42 44 44 44 46 48 45 38 16 17 2 15 23 29 43 36 39 39 48 43 46 46 42 43 50 46 16 31 33 39 41 39 43 40 38 35 7 16
38 38 39 41 41 40 42 43 44 46 50 49 48 44 28 27 53 42 34 12 39 49 40 44 46 49 43 40 43 43 42 37 46 41 37 36 41 40 44 42 42 46 30 33 27
42 42 43 43 43 44 45 45 47 50 49 51 40 30 22 46 29 36 22 20 37 44 41 42 35 44 41 43 33 39 40 47 41 41 43 43 42 46 50 45 44 45 50 40 34
43 43 43 45 49 49 50 49 49 49 52 39 28 24 33 60 19 27 30 37 37 39 37 38 35 30 31 34 37 41 26 32 38 42 38 37 42 47 47 48 53 52 58 54 53
45 46 46 46 50 52 52 50 50 49 47 32 20 18 29 15 53 29 35 40 42 38 37 30 33 33 42 29 11 32 37 36 42 44 43 35 36 34 39 48 56 59 52 58 58
47 48 50 50 50 54 54 49 47 45 31 15 10 17 28 20 39 54 40 45 45 39 36 30 36 38 40 34 26 31 36 43 41 21 24 33 31 28 31 34 39 56 54 63 64
52 50 49 54 51 53 56 48 33 9 2 11 13 15 38 37 30 44 48 42 45 40 35 33 35 32 35 32 34 40 37 40 33 32 23 28 35 28 35 26 31 43 52 58 68
60 55 51 56 57 56 56 30 11 12 26 29 31 29 22 14 22 44 54 44 48 46 34 51 37 42 49 47 44 40 38 38 31 24 14 23 27 32 30 29 29 34 48 53 64
59 63 65 60 57 57 41 14 25 25 39 51 63 61 57 22 27 38 61 52 46 42 47 33 46 48 47 47 43 40 26 20 16 20 15 23 27 28 25 17 26 33 37 49 61
61 65 66 61 54 31 11 38 40 34 25 52 65 77 74 67 49 52 71 72 46 51 52 42 38 51 47 37 38 35 34 32 28 30 26 26 34 36 30 21 22 22 34 39 51
62 66 63 63 29 19 44 17 14 23 21 38 47 43 73 61 70 54 74 80 36 52 52 47 47 50 38 41 35 36 36 30 23 22 23 22 26 21 24 22 21 31 32 39 42
66 65 64 59 51 37 22 22 19 16 16 15 25 9 21 70 24 78 72 81 50 43 41 50 48 32 46 40 39 31 24 31 32 31 30 34 19 20 20 22 27 29 38 34 34
63 63 67 50 35 46 34 22 13 16 27 13 24 23 32 56 70 65 75 78 71 47 47 51 50 38 32 38 36 28 25 22 23 26 29 37 30 24 12 15 19 30 37 37 23
67 63 59 34 29 13 12 24 17 24 17 34 46 33 40 38 51 45 61 58 56 52 46 46 52 39 34 41 36 31 23 20 25 26 28 37 32 10 25 7 8 9 30 24 16
70 67 42 32 33 25 16 24 38 25 53 44 36 20 27 45 48 54 57 49 64 51 34 40 47 47 32 43 44 45 37 24 33 28 29 38 19 6 28 18 14 16 14 23 29
72 48 38 24 14 18 25 29 40 50 53 55 41 50 45 20 15 22 49 54 60 60 50 38 47 52 45 38 39 38 40 37 38 26 17 15 18 26 26 19 20 23 24 27 29
59 52 40 15 17 22 23 44 52 52 52 49 51 23 52 26 25 13 26 48 52 63 48 46 33 41 49 43 45 43 38 35 24 25 31 25 26 22 37 32 23 25 23 26 34
40 31 2 2 6 16 21 42 47 50 51 48 50 37 39 17 2 16 17 33 41 52 51 45 24 35 30 39 45 37 32 27 26 26 21 21 16 27 18 11 23 24 31 32 35
32 17 1 9 10 14 22 27 39 41 46 42 36 20 55 6 8 19 15 19 43 36 52 40 23 18 48 41 45 41 39 36 19 22 20 22 3 19 14 14 21 31 40 31 36
28 53 25 18 12 20 23 33 48 40 30 41 17 39 31 26 22 25 15 16 28 64 53 47 22 24 4 19 23 31 32 37 22 7 20 12 7 21 19 8 13 23 41 40 32
19 11 22 16 22 9 35 37 28 18 21 37 24 34 22 27 21 16 24 6 48 42 27 48 34 34 23 12 33 38 37 48 23 4 21 19 29 19 27 22 9 10 25 27 25
13 11 19 14 32 41 38 41 34 20 10 15 16 33 10 12 14 22 28 32 28 25 16 31 39 29 12 20 8 16 36 15 29 17 19 16 34 27 41 30 21 20 24 30 27
15 12 13 35 43 39 27 26 28 34 12 18 24 13 17 8 17 10 10 11 4 11 17 7 25 22 29 28 15 11 17 18 22 27 25 24 9 26 23 12 17 26 32 30 25
28 36 21 21 28 28 21 23 36 34 8 12 16 20 16 18 6 19 35 24 8 9 14 17 16 24 19 19 11 21 31 29 25 27 18 21 18 17 12 16 21 29 18 16 16
Wind_Direction_850mb
322 321 320 318 316 314 311 309 306 302 300 299 297 297 299 298 293 290 267 241 237 237 221 209 208 214 218 226 219 223 245 241 243 245 248 254 239 232 253 249 248 244 228 309 329
324 320 317 317 315 314 313 310 307 303 300 298 297 296 297 299 296 281 266 253 240 239 209 200 200 203 214 219 211 224 228 242 245 257 262 249 250 252 245 236 236 243 222 249 237
327 324 322 321 319 317 316 313 308 304 300 298 296 296 296 305 304 268 249 243 221 220 194 210 204 205 220 218 211 220 241 242 246 260 274 281 263 248 247 248 231 225 231 207 220
330 327 322 318 315 313 312 311 309 305 302 298 296 294 291 286 263 187 268 257 219 197 186 208 215 206 223 225 228 231 240 245 262 244 240 256 262 261 249 250 254 244 239 228 235
330 327 324 319 316 312 310 311 308 304 303 300 295 292 291 245 245 275 277 249 182 181 189 203 214 211 221 231 226 232 239 238 244 253 247 250 250 255 249 247 246 252 232 224 249
328 327 325 320 315 311 308 306 305 306 304 300 292 277 251 257 256 232 229 198 179 180 194 203 214 219 233 242 230 238 237 253 246 243 245 249 254 251 245 245 243 246 251 239 240
331 329 326 321 317 315 313 311 309 308 308 299 285 257 243 239 234 225 202 196 189 194 202 209 218 235 231 253 240 239 250 245 243 241 243 251 256 254 257 250 236 235 241 242 237
324 322 321 319 316 315 315 315 313 308 303 292 254 217 250 264 231 223 213 206 204 206 211 218 221 236 236 233 224 228 232 247 231 216 228 227 255 254 240 238 239 235 236 237 230
322 322 322 319 316 314 313 316 309 303 294 274 173 209 266 260 224 218 210 203 200 206 210 218 216 222 216 240 227 217 234 222 243 178 218 197 248 245 248 241 237 237 229 240 226
325 324 321 319 317 315 312 316 313 261 245 167 228 216 245 241 231 208 198 198 196 193 194 199 203 214 220 211 223 215 217 251 214 173 190 234 234 255 266 239 240 239 231 235 226
328 326 324 320 317 316 314 324 260 211 210 216 209 218 298 209 178 197 190 190 190 193 194 197 202 209 207 215 230 239 228 223 205 223 208 247 260 258 258 252 239 234 231 234 227
324 327 326 322 322 317 306 249 288 299 291 246 248 246 248 236 197 199 189 190 195 203 206 182 213 213 224 215 228 248 245 227 241 236 233 270 260 260 256 250 246 246 233 232 219
319 321 323 320 328 331 292 280 282 288 267 268 246 238 235 223 226 193 191 200 200 206 207 207 213 221 212 218 215 228 226 226 240 211 213 267 260 247 239 227 219 245 227 216 203
320 323 326 324 332 301 304 319 303 279 272 270 222 240 229 216 226 219 198 199 198 212 211 221 231 196 209 218 208 217 219 246 248 253 251 275 253 194 211 188 209 212 220 222 194
324 326 326 326 298 300 288 309 286 279 274 312 126 192 207 198 178 211 191 204 215 212 219 212 233 201 207 210 208 229 212 222 224 231 256 255 235 287 166 199 198 212 213 220 221
327 324 324 316 283 283 284 278 280 235 249 250 157 198 209 202 224 190 186 209 218 221 222 226 210 213 207 210 212 218 230 238 244 242 237 243 252 235 174 230 192 191 207 212 209
325 325 314 289 268 278 268 220 231 237 280 237 244 219 207 194 211 225 188 193 210 215 222 213 235 204 219 213 195 205 214 213 212 219 235 232 226 226 155 235 110 235 181 185 190
324 323 322 289 281 283 246 222 240 255 242 268 294 238 178 269 196 218 186 197 210 211 216 217 214 206 204 220 209 211 209 230 209 210 225 224 227 247 141 109 105 115 157 164 176
328 325 302 283 237 216 222 236 246 246 261 278 270 278 262 256 149 339 196 207 203 214 218 206 225 199 202 217 227 192 214 231 264 294 266 328 228 126 157 176 155 142 153 161 151
325 318 296 208 245 216 235 249 268 275 273 270 272 175 275 284 171 196 261 212 208 203 218 234 220 215 194 209 215 240 204 208 234 238 253 178 223 273 170 170 173 156 165 148 143
328 310 168 172 179 205 242 258 259 257 247 259 276 285 267 162 74 250 269 269 232 205 215 226 263 208 194 200 206 202 220 233 229 232 234 261 213 94 9 178 159 165 153 157 145
316 287 263 255 258 222 253 307 293 300 299 299 295 179 262 174 149 213 231 269 315 255 214 220 234 215 205 189 219 200 208 223 200 218 276 267 139 297 150 289 172 154 144 158 162
304 293 281 226 263 298 293 301 295 328 303 297 296 306 271 174 198 197 220 257 303 285 200 207 212 187 62 283 212 194 222 224 225 16 204 235 148 354 0 319 169 153 151 158 154
290 295 347 271 302 326 308 309 307 16 342 350 292 284 236 258 209 173 220 241 263 281 327 202 210 218 205 168 191 207 187 199 169 116 229 223 249 235 272 263 276 207 148 134 159
282 311 11 316 325 315 316 301 324 349 338 301 283 234 305 266 184 229 222 199 264 318 237 207 209 225 93 160 119 232 224 216 248 222 255 239 192 223 245 189 166 135 153 145 148
309 339 308 301 313 314 313 344 343 325 333 344 317 311 292 252 209 144 293 174 201 257 206 124 197 253 138 176 174 236 225 244 232 251 256 258 188 280 155 113 108 155 170 168 166
323 323 294 297 309 308 318 305 310 316 333 211 302 305 41 338 298 155 182 188 176 274 164 175 163 196 198 170 168 220 220 223 236 216 237 250 249 209 197 163 149 176 173 175 159